[[{"header":{"parameterUnit":"m.s-1","parameterCategory":1,"la1":30.2991,"la2":30.254,"lo1":-89.0895,"lo2":-89.0444,"dy":0.0017,"dx":0.0017,"nx":28,"ny":28,"refTime":"2024-06-24T09:00:00:Z","depth":0,"parameterNumber":2,"parameterNumberName":"U-component_of_WINDS"},"data":[0,0,0,0,0,0,0,0,0,0,0,0,0,0,0,0,0,0,0,0,0,0,0,0,0,0,0,0,0,0,0,0,0,0,0,0,0,0,0,0,0,0,0,0,0,0,0,0,0,0,0,0,0,0,0,0,0,0,1.5361,1.5363,0,1.5524,1.5526,1.5528,1.5561,1.556,1.5559,1.5558,1.5727,1.5732,1.5738,0,0,0,0,0,0,0,0,0,0,0,0,0,1.5079,1.5084,1.5361,1.5363,1.5365,1.5524,1.5526,1.5528,1.5562,1.556,1.5559,1.5557,1.5725,1.5732,1.5738,0,0,0,0,0,0,0,0,0,0,0,0,0,1.5218,1.5086,1.536,1.5401,1.5406,1.5523,1.5526,1.5529,1.5562,1.556,1.5558,1.5557,1.5723,1.5731,1.5739,1.5829,0,0,1.5765,1.5769,0,0,0,0,0,0,0,0,1.521,1.5228,1.5393,1.5398,1.5404,1.552,1.5489,1.563,1.5562,1.5503,1.5558,1.5556,1.566,1.5673,1.5708,1.5837,1.5844,1.5766,1.5771,1.5775,1.5777,0,0,0,0,0,0,0,1.52,1.5221,1.5425,1.5395,1.5402,1.5411,1.5429,1.5516,1.559,1.5508,1.5511,1.5529,1.5663,1.57,1.5712,1.5847,1.5766,1.5773,1.5779,1.5782,1.6055,1.6057,0,0,0,0,0,0,1.5183,1.5213,1.542,1.543,1.53,1.5418,1.5437,1.5485,1.5589,1.5603,1.5531,1.553,1.5686,1.5702,1.5718,1.5828,1.5775,1.5783,1.5788,1.6053,1.6056,1.6058,0,0,0,0,0,0,1.5177,1.5202,1.5414,1.5323,1.535,1.5424,1.5478,1.5489,1.5526,1.5606,1.562,1.5555,1.5685,1.5706,1.5801,1.5835,1.5787,1.5794,1.6051,1.6054,1.6057,1.605,0,0,0,0,0,0,1.5169,1.5199,1.5234,1.5323,1.5355,1.5493,1.548,1.5494,1.5541,1.5542,1.5633,1.5646,1.5686,1.5788,1.5809,1.5846,1.5801,1.6048,1.6052,1.6056,1.6047,1.6052,1.6057,0,0,0,0,0,1.5159,1.5226,1.5235,1.526,1.5399,1.5495,1.5513,1.5557,1.5543,1.5579,1.563,1.5643,1.5828,1.5797,1.5821,1.5861,1.6046,1.6051,1.6056,1.6045,1.6051,1.6057,0,0,0,0,0,0,1.5139,1.5238,1.525,1.5348,1.5412,1.55,1.5546,1.5562,1.5632,1.563,1.5682,1.5703,1.5793,1.5837,1.5801,1.5952,1.5936,1.5946,1.592,1.5927,1.5931,1.5918,1.5808,0,0,0,0,0,1.5146,1.5215,1.5298,1.5376,1.5408,1.5471,1.5514,1.5542,1.5612,1.5639,1.5698,1.5765,1.5838,1.5885,1.5957,1.6054,1.6074,1.6094,1.6098,1.6102,1.6109,1.6163,1.6172,1.6074,1.6074,1.6074,0,0,1.5161,1.5224,1.5264,1.5374,1.5427,1.5497,1.5494,1.5568,1.562,1.5651,1.5743,1.5788,1.5866,1.5962,1.6007,1.6001,1.6141,1.6108,1.611,1.6116,1.6168,1.6178,1.6186,1.6078,1.6077,1.6076,0,0,1.5224,1.5279,1.5349,1.5402,1.5483,1.5525,1.5541,1.5627,1.5658,1.5751,1.5775,1.5838,1.5963,1.6018,1.6062,1.6145,1.6159,1.6167,1.6191,1.6242,1.625,1.6257,1.6285,1.6294,1.6175,1.6175,1.6175,0,1.5232,1.5338,1.5383,1.5456,1.5503,1.5534,1.5605,1.5655,1.5755,1.5787,1.5779,1.5936,1.5991,1.6099,1.6119,1.6155,1.6175,1.6156,1.6245,1.6253,1.626,1.6287,1.6297,1.6175,1.6175,1.6175,1.6175,0,1.5343,1.5416,1.5464,1.5558,1.5611,1.5683,1.5739,1.5787,1.5811,1.5853,1.5947,1.6015,1.61,1.6128,1.6152,1.6239,1.6233,1.6235,1.6219,1.6268,1.6295,1.6306,1.6175,1.6175,1.6175,1.6175,0,0,1.5397,1.5516,1.5532,1.5575,1.5666,1.5723,1.5797,1.5879,1.5918,1.5987,1.6049,1.6154,1.6156,1.6206,1.6237,1.6282,1.6341,1.6278,1.6281,1.6286,1.6439,1.6436,1.6447,1.6352,1.6354,1.6356,1.6432,0,1.5469,1.5599,1.5642,1.5751,1.5818,1.5848,1.5911,1.5974,1.6016,1.608,1.6126,1.6199,1.6197,1.6227,1.6273,1.6324,1.6372,1.632,1.6409,1.6412,1.6386,1.6461,1.6458,1.6526,1.6443,1.6445,1.6446,0,1.557,1.5638,1.5753,1.5835,1.5864,1.5921,1.5999,1.606,1.6132,1.6159,1.6214,1.6242,1.6319,1.6301,1.6408,1.6371,1.6411,1.6441,1.6445,1.6453,1.643,1.647,1.655,1.6559,1.6463,1.6462,1.646,0,1.5595,1.5716,1.58,1.5836,1.5934,1.5972,1.6015,1.6085,1.6132,1.6201,1.6232,1.631,1.6352,1.6411,1.6459,1.6441,1.6561,1.6547,1.6585,1.6584,1.6608,1.6605,1.6693,1.6636,1.6636,1.6636,1.6636,0,1.5669,1.5738,1.5812,1.5863,1.5941,1.599,1.6066,1.611,1.6172,1.6233,1.6265,1.6321,1.6381,1.6446,1.6484,1.6566,1.6585,1.6609,1.6618,1.6605,1.6601,1.663,1.6626,1.6639,1.6638,1.6638,1.6637,0,1.5709,1.5762,1.5855,1.594,1.5963,1.6016,1.6089,1.614,1.6183,1.6259,1.628,1.6348,1.6425,1.6479,1.6579,1.6604,1.6692,1.6702,1.6667,1.6671,1.6705,1.6701,1.6813,1.683,1.6764,1.6764,1.6765,0,1.5752,1.5805,1.5895,1.5938,1.598,1.6049,1.6096,1.6147,1.6195,1.628,1.6321,1.64,1.6466,1.6588,1.6646,1.6723,1.6733,1.6767,1.6745,1.6729,1.6731,1.6726,1.6731,1.677,1.677,1.6771,1.6771,0,1.5822,1.5845,1.5912,1.5988,1.6043,1.6105,1.6168,1.6201,1.6263,1.6316,1.6395,1.6445,1.6547,1.6624,1.6706,1.6751,1.6771,1.6778,1.679,1.6777,1.6754,1.6764,1.6674,1.6775,1.6774,1.6774,1.6774,1.6774,1.5863,1.5911,1.5982,1.6055,1.6107,1.6165,1.6217,1.6266,1.6332,1.6418,1.6445,1.6526,1.6596,1.6708,1.6754,1.6818,1.6816,1.6834,1.6839,1.6842,1.6841,1.6745,1.6834,1.6834,1.6834,1.6834,1.6834,0,1.5933,1.598,1.6047,1.6133,1.619,1.6204,1.6274,1.6321,1.6392,1.6456,1.652,1.661,1.6686,1.675,1.6828,1.6867,1.6879,1.6886,1.6883,1.6892,1.6839,1.682,1.6876,1.6876,1.6876,1.6876,1.6876,1.6876,1.5976,1.6057,1.6089,1.6197,1.6244,1.6323,1.6361,1.6415,1.6465,1.6564,1.6627,1.6668,1.6732,1.6815,1.6885,1.6902,1.6929,1.6934,1.6953,1.6901,1.6896,1.6892,1.6873,1.694,1.694,1.7,1.7001,1.7001]},{"header":{"parameterUnit":"m.s-1","parameterCategory":1,"la1":30.2991,"la2":30.254,"lo1":-89.0895,"lo2":-89.0444,"dy":0.0017,"dx":0.0017,"nx":28,"ny":28,"refTime":"2024-06-24T09:00:00:Z","depth":0,"parameterNumber":3,"parameterNumberName":"V-component_of_WINDS"},"data":[0,0,0,0,0,0,0,0,0,0,0,0,0,0,0,0,0,0,0,0,0,0,0,0,0,0,0,0,0,0,0,0,0,0,0,0,0,0,0,0,0,0,0,0,0,0,0,0,0,0,0,0,0,0,0,0,0,0,4.5367,4.5367,0,4.5342,4.5342,4.5342,4.5272,4.527,4.5269,4.5267,4.5243,4.5244,4.5245,0,0,0,0,0,0,0,0,0,0,0,0,0,4.5356,4.5357,4.5367,4.5367,4.5367,4.5342,4.5342,4.5342,4.5272,4.527,4.5268,4.5267,4.5243,4.5244,4.5245,0,0,0,0,0,0,0,0,0,0,0,0,0,4.5349,4.5357,4.5367,4.5329,4.5325,4.5342,4.5342,4.5342,4.5272,4.527,4.5268,4.5266,4.5243,4.5244,4.5245,4.5298,0,0,4.5248,4.5249,0,0,0,0,0,0,0,0,4.535,4.535,4.5335,4.5332,4.5328,4.5308,4.5329,4.5327,4.5273,4.5293,4.5267,4.5265,4.5267,4.5266,4.5266,4.5296,4.5295,4.5248,4.5249,4.525,4.525,0,0,0,0,0,0,0,4.535,4.535,4.5357,4.5335,4.533,4.5313,4.531,4.5328,4.5293,4.5291,4.5286,4.5284,4.5264,4.5265,4.5265,4.5295,4.5248,4.5249,4.525,4.5251,4.5368,4.537,0,0,0,0,0,0,4.5356,4.5351,4.5358,4.5357,4.5333,4.5316,4.5312,4.5317,4.5292,4.5286,4.5285,4.528,4.5264,4.5264,4.5264,4.5324,4.525,4.5251,4.5251,4.5365,4.5368,4.5371,0,0,0,0,0,0,4.5356,4.5357,4.5359,4.5352,4.5351,4.5318,4.5324,4.5317,4.5318,4.5288,4.5282,4.5293,4.5262,4.5262,4.529,4.5322,4.5251,4.5252,4.5362,4.5366,4.5369,4.5444,0,0,0,0,0,0,4.5356,4.5358,4.5377,4.5353,4.5352,4.5385,4.5326,4.5318,4.532,4.5313,4.5293,4.5288,4.5261,4.5288,4.5291,4.5322,4.5253,4.5359,4.5364,4.5368,4.5439,4.545,4.546,0,0,0,0,0,4.5356,4.5399,4.5378,4.538,4.5375,4.5387,4.5386,4.5354,4.5323,4.5342,4.5323,4.5289,4.5318,4.5292,4.5294,4.5326,4.5357,4.5363,4.5368,4.5434,4.5448,4.5459,0,0,0,0,0,0,4.5428,4.5395,4.5372,4.5409,4.5401,4.5375,4.5399,4.5369,4.537,4.5364,4.5323,4.532,4.5353,4.5342,4.5313,4.5376,4.5332,4.5338,4.5382,4.5394,4.5405,4.5406,4.5254,0,0,0,0,0,4.5448,4.546,4.5431,4.5467,4.5464,4.5432,4.5436,4.5412,4.5402,4.5399,4.5382,4.5374,4.5382,4.5387,4.5393,4.5437,4.5432,4.5461,4.5471,4.548,4.5485,4.5508,4.5521,4.5389,4.5389,4.5388,0,0,4.549,4.5474,4.5483,4.5481,4.5472,4.5485,4.543,4.5447,4.5456,4.5401,4.5426,4.5414,4.5403,4.5439,4.5454,4.5431,4.5521,4.5487,4.5494,4.5495,4.5515,4.5528,4.5539,4.5392,4.5392,4.5391,0,0,4.5572,4.5562,4.559,4.5582,4.557,4.5548,4.5555,4.5534,4.5523,4.5548,4.5506,4.5518,4.5532,4.5526,4.5524,4.5606,4.5574,4.5609,4.5663,4.5686,4.5696,4.5705,4.5734,4.5745,4.5615,4.5615,4.5615,0,4.5626,4.5644,4.5608,4.5628,4.5628,4.5578,4.5607,4.5602,4.5592,4.5593,4.5568,4.5584,4.5573,4.5607,4.5627,4.5628,4.5635,4.5611,4.5698,4.5706,4.5714,4.5741,4.5753,4.5619,4.5619,4.5618,4.5618,0,4.5711,4.5724,4.5749,4.574,4.5743,4.5767,4.5735,4.5742,4.5718,4.57,4.5725,4.5711,4.5712,4.5719,4.5695,4.575,4.5736,4.5705,4.566,4.5732,4.5757,4.5767,4.5625,4.5624,4.5623,4.5621,0,0,4.5837,4.5809,4.5818,4.5814,4.5796,4.5806,4.5829,4.583,4.5837,4.5832,4.585,4.5863,4.5834,4.5833,4.5808,4.5828,4.5894,4.5795,4.5794,4.5813,4.5953,4.5976,4.5989,4.5873,4.5875,4.5876,4.5954,0,4.5915,4.595,4.5919,4.596,4.5973,4.5927,4.5946,4.5938,4.5922,4.593,4.5912,4.5922,4.5883,4.5882,4.59,4.5882,4.5921,4.5876,4.5889,4.589,4.5893,4.6002,4.6026,4.61,4.5964,4.5965,4.5966,0,4.601,4.6009,4.6052,4.6032,4.6036,4.6054,4.6053,4.6061,4.6052,4.6039,4.6038,4.6008,4.6028,4.5985,4.6013,4.5983,4.5987,4.5979,4.5981,4.598,4.5932,4.6004,4.6123,4.6134,4.5981,4.598,4.5979,0,4.6097,4.6107,4.6134,4.6132,4.611,4.6123,4.6115,4.6103,4.6106,4.6105,4.6107,4.6109,4.611,4.6112,4.6084,4.6055,4.6116,4.607,4.6106,4.6107,4.612,4.612,4.6241,4.6124,4.6124,4.6123,4.6123,0,4.6187,4.6215,4.6173,4.6189,4.622,4.6184,4.6215,4.6202,4.6192,4.6205,4.6166,4.618,4.6141,4.6151,4.6129,4.6156,4.6157,4.6147,4.6141,4.6151,4.6152,4.6152,4.6146,4.6126,4.6126,4.6125,4.6124,0,4.6289,4.6262,4.6288,4.6266,4.6261,4.6284,4.6265,4.6279,4.6261,4.6278,4.6281,4.6252,4.6261,4.6234,4.6239,4.6224,4.6263,4.6249,4.6266,4.6262,4.6299,4.6296,4.6425,4.644,4.6313,4.6315,4.6316,0,4.6348,4.6368,4.6348,4.6354,4.6348,4.6358,4.6361,4.6327,4.6332,4.6322,4.6338,4.6345,4.6348,4.6366,4.6345,4.635,4.6335,4.638,4.6335,4.6344,4.6335,4.6334,4.6336,4.6389,4.639,4.6392,4.6393,0,4.6455,4.6441,4.6446,4.6447,4.6451,4.6451,4.6447,4.6455,4.6419,4.6426,4.6435,4.6438,4.6443,4.645,4.645,4.6442,4.6412,4.6407,4.6415,4.6425,4.6434,4.643,4.6291,4.6404,4.6403,4.6402,4.6401,4.6401,4.6537,4.6553,4.6541,4.6548,4.6542,4.654,4.6553,4.6536,4.6543,4.6545,4.6525,4.6538,4.6529,4.6525,4.6521,4.6531,4.651,4.6523,4.6526,4.6529,4.6536,4.6433,4.6531,4.6531,4.653,4.653,4.653,0,4.6641,4.6631,4.6639,4.6635,4.6641,4.6612,4.6607,4.6614,4.6627,4.662,4.6624,4.6636,4.6642,4.6623,4.6627,4.664,4.6626,4.6642,4.664,4.6639,4.6554,4.6546,4.6653,4.6653,4.6653,4.6653,4.6653,4.6653,4.6696,4.6722,4.6706,4.6729,4.6719,4.6732,4.6732,4.673,4.6725,4.6739,4.6744,4.6731,4.672,4.6723,4.6729,4.6723,4.6726,4.6747,4.6736,4.6657,4.6645,4.6633,4.6626,4.6748,4.6748,4.6821,4.6821,4.6822]}]]